Regional Weather Roundup
Issued by NWS

Home | Current Version | Previous Version | Text Only | Print | Product List | Glossary On
Versions: 1 2 3 4 5 6 7 8 9 10 11 12 13 14 15 16 17 18 19 20 21 22 23 24 25 26 27 28 29 30 31 32 33 34 35 36 37 38 39 40 41 42 43 44 45 46 47 48 49 50
641
ASUS44 KLIX 041005
RWRLA
LOUISIANA WEATHER ROUNDUP
NATIONAL WEATHER SERVICE NEW ORLEANS LA
400 AM CST WED MAR 04 2015

NOTE: "FAIR" INDICATES FEW OR NO CLOUDS BELOW 12,000 FEET WITH NO
      SIGNIFICANT WEATHER AND/OR OBSTRUCTIONS TO VISIBILITY.
      SKY/WX - SKY CONDITION AND SIGNIFICANT WEATHER.
      TMP - AIR TEMPERATURE.    DP   - DEWPOINT TEMPERATURE.
      RH  - RELATIVE HUMIDITY.  PRES - PRESSURE.
      HX  - HEAT INDEX.         WCI  - WIND CHILL INDEX.

*  THESE STATIONS ARE NOT NWS OR FAA STATIONS AND ARE NOT UNDER
   NWS QUALITY CONTROL.

LAZ040-048-061>063-065-066-069-041100-
SOUTHEAST LOUISIANA

CITY           SKY/WX    TMP DP  RH WIND       PRES   REMARKS
N.O. AUDUBON     N/A     67  67 100 MISG        N/A
N.O. INTL ARPT MOCLDY    68  65  90 SE7       29.96S
N.O. LAKEFRONT FOG       63  60  90 CALM      29.97S VSB 1/2
SLIDELL        CLOUDY    68  67  96 SE7       29.97R
BATON ROUGE    CLOUDY    68  67  96 S7        29.95F FOG
BOOTHVILLE     CLEAR     67  66  97 SE7       29.98S
BELLE CHASSE   MOCLDY    64  62  93 CALM      29.96S FOG
BOGALUSA*        N/A     70  66  86 S3        29.99S
GALLIANO*      PTSUNNY   66  65  96 CALM      29.97S
NEW ROADS*     CLOUDY    68  67  97 SE6       29.94F
GONZALES*      CLOUDY    66  66 100 CALM      29.96S FOG
HAMMOND*       CLOUDY    66  63  88 SE3       29.99S FOG
HOUMA*         FOG       63  63 100 CALM      29.96S VSB 1/4
PORT FOURCHON* CLOUDY    70  66  88 S6        29.99F

$$

LAZ041-044-053-054-041100-
SOUTHWEST LOUISIANA

CITY           SKY/WX    TMP DP  RH WIND       PRES   REMARKS
LAKE CHARLES   CLOUDY    68  67  96 S5        29.91F
LAFAYETTE      MOCLDY    66  65  96 S3        29.93F
PATTERSON      PTCLDY    68  66  94 S8        29.94F
SALT POINT       N/A     65  65 100 SE6       29.93F
NEW IBERIA     FOG       63  62  97 SE5       29.94F VSB 1/4
CHENAULT AIRPK NOT AVBL

$$

LAZ027-028-041100-
CENTRAL LOUISIANA

CITY           SKY/WX    TMP DP  RH WIND       PRES   REMARKS
FORT POLK      CLOUDY    68  67  94 S9        29.88F
ALEXANDRIA INT CLOUDY    65  64  97 SE6       29.90R FOG
ALEXANDRIA     CLOUDY    69  66  90 S8        29.91F

$$

LAZ001-002-041100-
NORTHWEST LOUISIANA

CITY           SKY/WX    TMP DP  RH WIND       PRES   REMARKS
SHREVEPORT     CLOUDY    64  63  96 S3        29.86F
BARKSDALE AFB  CLOUDY    62  62 100 S5        29.87S
DTN SHREVEPORT CLOUDY    64  62  93 SE5       29.87S

$$

LAZ014-016-041100-
NORTHEAST LOUISIANA

CITY           SKY/WX    TMP DP  RH WIND       PRES   REMARKS
MONROE         MOCLDY    65  64  97 S6        29.90F
TALLULAH       FOG       63  62  97 SE6       29.93F VSB 3/4

$$




USA.gov is the U.S. government's official web portal to all federal, state and local government web resources and services.